AirNav   Everest Fuels
 
 1030 users online  

49PN Geisinger Heliport
Danville, Pennsylvania, USA

GOING TO DANVILLE?


FAA INFORMATION EFFECTIVE 18 JUNE 2020

Location

FAA Identifier: 49PN
Lat/Long: 40-58-22.2100N 076-36-16.6300W
40-58.370167N 076-36.277167W
40.9728361,-76.6046194
(estimated)
Elevation: 600 ft. / 183 m (estimated)
Variation: 11W (1985)
From city: 1 mile N of DANVILLE, PA
Time zone: UTC -4 (UTC -5 during Standard Time)
Zip code: 17821

Heliport Operations

Heliport use: Private use, MEDICAL USE.
Activation date: 08/1980
Control tower: no
ARTCC: NEW YORK CENTER
FSS: WILLIAMSPORT FLIGHT SERVICE STATION
NOTAMs facility: FDC (NOTAM-D service not available)
Attendance: UNATNDD
Wind indicator: lighted
Segmented circle: no
Lights: SS-SR

Heliport Communications

UNICOM: 123.05
WX AWOS-3 at 79PN (0.3 nm S): 118.075 (570-271-8192)
WX AWOS-3 at N79 (8 nm S): 119.175 (570-672-0389)
WX ASOS at SEG (15 nm SW): 123.975 (570-374-4099)
WX AWOS-3 at ZER (19 nm SE): 127.575 (570-544-2778)

Nearby radio navigation aids

VOR radial/distance  VOR name  Freq  Var
MIPr147/4.1MILTON VORTAC109.2009W
SEGr057/16.7SELINSGROVE VOR/DME110.4008W
FQMr170/23.3WILLIAMSPORT VOR/DME114.4009W
RAVr010/25.2RAVINE VORTAC114.6011W

 
NDB name  Hdg/Dist  Freq  Var  ID
BELLGROVE006/32.332810WBZJ -... --.. .---

Heliport Services

Runway Information

Helipad H2

Dimensions: 47 x 47 ft. / 14 x 14 m
Surface: asphalt/concrete
Latitude: 40-58.367667N
Longitude: 076-36.257833W
Traffic pattern: leftleft

Helipad H1

Dimensions: 46 x 46 ft. / 14 x 14 m
Surface: asphalt
Runway edge lights: PERI
Operational restrictions: SQUARE HELIPAD.
Latitude: 40-58.360833N
Longitude: 076-36.292333W
Elevation: 600.0 ft.
Traffic pattern: leftleft

Heliport Ownership and Management from official FAA records

Ownership: Privately-owned
Owner: GEISINGER MEDICAL CENTER
NORTH ACADEMY AVENUE
DANVILLE, PA 17822
Phone 570-271-6217
Manager: JERRY SPLITT
100 N. ACADEMY AVE
DANVILLE, PA 17822-4050
Phone (570) 271-5124

Heliport Operational Statistics

Aircraft based on the field: 2
Helicopters: 2
    

Additional Remarks

FOR CD CTC WILKES-BARRE APCH AT 570-655-2084.

Instrument Procedures

There are no published instrument procedures at 49PN.

Some nearby airports with instrument procedures:

8N8 - Danville Airport (2 nm SW)
N13 - Bloomsburg Municipal Airport (8 nm E)
N79 - Northumberland County Airport (8 nm S)
KSEG - Penn Valley Airport (15 nm SW)
KZER - Schuylkill County/Joe Zerbey Airport (19 nm SE)
 
Loc | Ops | Rwys | IFR | FBO | Links
Com | Nav | Svcs | Stats | Notes
Area around 49PN (Geisinger Heliport)
 
Road maps at: MapQuest Bing Google
 
Aerial photo
No photo
 
Sectional chart

 
Airport distance calculator
Flying to Geisinger Heliport? Find the distance to fly.

From to 49PN

Sunrise and sunset
Times for 07-Jul-2020
 Local
(UTC-4)
 Zulu
(UTC)
Morning civil twilight05:1009:10
Sunrise05:4309:43
Sunset20:4000:40
Evening civil twilight21:1301:13

Current date and time
Zulu (UTC)  08-Jul-2020 02:36:37
Local (UTC-4)  07-Jul-2020 22:36:37
 
METAR
KSEG 
15nm SW 
080153Z AUTO 00000KT 7SM FEW027 22/21 A3004 RMK AO2 SLP168 T02220211
KIPT 
22nm NW 
080154Z 20004KT 10SM OVC027 24/20 A3003 RMK AO2 RAB31E42 SLP165 P0000 T02390200
KHZL 
28nm E 
080216Z AUTO 00000KT 10SM SCT024 21/20 A3011 RMK AO2
TAF
KIPT 
22nm NW 
072118Z 0721/0818 15007KT P6SM VCSH BKN035 FM080000 VRB03KT P6SM SCT035 FM080900 00000KT P6SM BKN020
NOTAMs
Click for the latest NOTAMs
NOTAMs are issued by the DoD/FAA and will open in a separate window not controlled by AirNav.

 

 
 

Would you like to see your business listed on this page?

 If your business provides an interesting product or service to pilots, flight crews, aircraft, or users of the Geisinger Heliport, you should consider listing it here.  To start the listing process, click on the button below
 
Add a business
 

Other Pages about Geisinger Heliport

Update a link
 
Copyright © AirNav, LLC. All rights reserved. Privacy Policy  Contact